Location: Bergnerzell
(49.1816°N, 10.2565°E)
Time: 03:29:19
(UTC+00:00)

SJ 16-02 - Pass Details

Date: 23 May 2024
Orbit: 594 x 605 km, 75.0° (Epoch: 13 June)

Event Time Altitude Azimuth Distance (km) Brightness Sun altitude
Exits shadow 01:40:13 16° 183° (S) 1,567 2.9 -13.1°
Maximum altitude 01:43:31 59° 107° (ESE) 695 1.7 -12.8°
Drops below altitude 10° 01:47:45 10° 29° (NNE) 1,940 5.4 -12.4°
Sets 01:50:01 0° 25° (NNE) 2,847 6.6 -12.2°
